Weather History for Puerto Plata, Dominican Republic

Change the Weather History Date:

Friday, October 26, 2012

  Actual Average Record
Temperature  
Mean Temperature 82 °F -  
Max Temperature 86 °F 84 °F 93 °F (2013)
Min Temperature 77 °F 71 °F 71 °F (2004)
Cooling Degree Days 16    
Growing Degree Days 32 (Base 50)    
Moisture  
Dew Point 75 °F    
Average Humidity 82    
Maximum Humidity 94    
Minimum Humidity 71    
Precipitation  
Precipitation 0.04 in - - ()
Sea Level Pressure  
Sea Level Pressure 29.68 in    
Wind  
Wind Speed 2 mph ()    
Max Wind Speed 14 mph    
Max Gust Speed -    
Visibility 6.4 miles    
Events Rain    
Averages and records for this station are not official NWS values.
T = Trace of Precipitation, MM = Missing Value Source: Averaged Metar Reports

Daily Weather History Graph

Daily Weather History Graph

Search for Another Location

Airport:

Trip Planner

Search our weather history database for the weather conditions in past years. The results will help you decide how hot, cold, wet, or windy it might be!

Date:

Astronomy

Oct. 26, 2012 Rise Set
Actual Time 6:40 AM AST 6:10 PM AST
Civil Twilight 6:18 AM AST 6:33 PM AST
Nautical Twilight 5:52 AM AST 6:59 PM AST
Astronomical Twilight 5:26 AM AST 7:25 PM AST
Moon 4:08 PM AST (10/26) 3:54 AM AST (10/26)
Length of Visible Light 12h 14m
Length of Day
11h 30m
Waxing Gibbous, 91% of the Moon is Illuminated
Oct 26
Waxing Gibbous
Oct 29
Full
Nov 6
Last Quarter
Nov 13
New
Nov 20
First Quarter

Hourly Weather History & Observations

Time (AST) Temp. Heat Index Dew Point Humidity Pressure Visibility Wind Dir Wind Speed Gust Speed Precip Events Conditions
2:00 AM 81 °F - 74 °F 75% 29.68 in 10 mi Calm Calm - -   Overcast
2:00 AM 80.6 °F 86.2 °F 75.2 °F 84% 29.68 in 6.2 mi Calm Calm - N/A   Overcast
5:00 AM 79 °F - 74 °F 80% 29.65 in 10 mi Calm Calm - -   Overcast
5:00 AM 78.8 °F - 73.4 °F 83% 29.65 in 6.2 mi Calm Calm - N/A   Overcast
8:00 AM 81 °F - 73 °F 71% 29.69 in 5 mi South 11.2 mph - - Rain Light Rain
8:00 AM 80.6 °F 85.4 °F 73.4 °F 79% 29.68 in 5.0 mi South 11.5 mph - N/A Rain Light Rain
9:00 AM 80.6 °F 86.2 °F 75.2 °F 84% 29.68 in 5.0 mi SE 5.8 mph - N/A Rain Light Rain
10:00 AM 82.4 °F 89.5 °F 75.2 °F 79% 29.68 in 5.0 mi SE 13.8 mph - N/A Rain Light Rain
11:00 AM 84 °F - 77 °F 74% 29.67 in 10 mi ESE 6.7 mph - -   Partly Cloudy
11:00 AM 84.2 °F 94.1 °F 77.0 °F 79% 29.65 in 6.2 mi ESE 5.8 mph - N/A   Overcast
12:00 PM 86.0 °F 96.9 °F 77.0 °F 74% 29.68 in - SSE 5.8 mph - N/A   Overcast
1:00 PM 86.0 °F 96.9 °F 77.0 °F 74% 29.68 in 6.2 mi Calm Calm - N/A   Overcast
2:00 PM 84 °F - 77 °F 74% 29.66 in 5 mi Calm Calm - - Rain Light Rain
2:00 PM 84.2 °F 94.1 °F 77.0 °F 79% 29.65 in 5.0 mi Calm Calm - N/A Rain Light Rain
3:00 PM 84.2 °F 94.1 °F 77.0 °F 79% 29.62 in - Calm Calm - N/A Rain Light Rain
4:00 PM 80.6 °F 87.1 °F 77.0 °F 89% 29.92 in 5.0 mi Calm Calm - N/A Rain Light Rain
5:00 PM 80 °F - 76 °F 84% 29.64 in 5 mi Calm Calm - - Rain Light Rain
5:00 PM 78.8 °F - 77.0 °F 94% 29.62 in 5.0 mi Calm Calm - N/A Rain Rain
6:00 PM 78.8 °F - 75.2 °F 89% 29.65 in - North - - N/A Rain Light Rain
7:00 PM 77.0 °F - 75.2 °F 94% 29.68 in - Calm Calm - N/A Rain Light Rain
8:00 PM 80.6 °F 86.2 °F 75.2 °F 84% 29.65 in 6.2 mi Calm Calm - N/A   Mostly Cloudy
11:00 PM 77 °F - 73 °F 84% 29.69 in 10 mi Calm Calm - -   Partly Cloudy
11:00 PM 77.0 °F - 73.4 °F 89% 29.68 in 6.2 mi Calm Calm - N/A   Mostly Cloudy